Other Public Products
Issued by NWS Charleston, SC

Current Version | Previous Version | Graphics & Text | Print | Product List | Glossary On
Versions: 1 2 3 4 5 6 7 8 9 10 11 12 13 14 15 16 17 18 19 20 21 22 23 24 25 26 27 28 29 30 31 32 33 34 35 36 37 38 39 40 41 42 43 44 45 46 47 48 49 50
279 FPUS82 KCHS 291527 OPUCHS TEST...KCHS/KSAV Gateway Observations...TEST National Weather Service Charleston SC 1100 AM EDT WED MAR 29 2017 NOTE: "fair" indicates few or no clouds below 12,000 feet with no significant weather and/or obstructions to visibility. SCZ050-WAZ558-NCZ071-TXZ119-213-PAZ071-DCZ001-FLZ074-172-MI076- NYZ176-178-MAZ016-IL014-TNZ027-NJZ106-GAZ044-MD014-291600- ...Gateway Observations for Charleston International... CITY SKY/WX TMP DP RH WIND PRES REMARKS Chas Airport MOSUNNY 76 54 46 E6 30.03R Seattle LGT RAIN 47 46 97 SE10 29.85F VSB 1 Charlotte MOSUNNY 70 50 49 NE12 30.10R Dallas DFW MOSUNNY 67 60 78 S18G25 29.70R Dallas Love MOSUNNY 66 59 78 S16 29.72R Philladelphia MOSUNNY 51 35 54 NW15 30.12R Wash National MOSUNNY 60 44 55 N14 30.14R Baltimore MOSUNNY 56 39 53 NW10 30.13R Miami MOSUNNY 81 65 58 SE6 30.06R Detroit MOSUNNY 49 33 54 E6 30.29F Newark MOSUNNY 51 37 58 NW12 30.08S Laguardia MOSUNNY 49 37 63 NW13 30.08R J F K MOSUNNY 51 36 56 N18G26 30.08R Boston Logan CLOUDY 41 38 89 N12 30.04R Ft. Lauderdale MOSUNNY 80 65 59 CALM 30.05R Chicago O`Hare CLOUDY 44 35 70 NE12 30.24R Chicago Midway CLOUDY 45 36 70 NE8 30.25R Houston Bush TSTM 73 68 84 NE17 29.82R Houston Hobby CLOUDY 75 67 76 SE13G20 29.80F Nashville MOSUNNY 64 54 69 SE5 30.06R Atlanta PTSUNNY 70 53 54 SE8 30.07R $$ GAZ044-118-TXZ119-213-NCZ071-DCZ001-MDZ014-506-PAZ021-071-NJZ106- NYZ176-178-MAZ106-OHZ011-021-055-MIZ076-KYZ091-ILZ014-INZ047- MNZ060-ONZ431-291600- ...Gateway Observations for Savannah International... CITY SKY/WX TMP DP RH WIND PRES REMARKS Savannah Arpt PTSUNNY 77 56 48 E7 30.04R Atlanta PTSUNNY 70 53 54 SE8 30.07R Charlotte MOSUNNY 70 50 49 NE12 30.10R Dallas DFW MOSUNNY 67 60 78 S18G25 29.70R Houston Bush TSTM 73 68 84 NE17 29.82R Wash National MOSUNNY 60 44 55 N14 30.14R Wash Dulles PTSUNNY 43 37 81 E12G17 30.22R Baltimore MOSUNNY 56 39 53 NW10 30.13R Philadelphia MOSUNNY 51 35 54 NW15 30.12R Newark MOSUNNY 51 37 58 NW12 30.08S Laguardia MOSUNNY 49 37 63 NW13 30.08R J F K MOSUNNY 51 36 56 N18G26 30.08R Boston CLOUDY 41 38 89 N12 30.04R Pittsburg MOSUNNY 47 36 65 N7 30.23R Akron MOSUNNY 48 36 63 VRB5 30.25R Cleveland MOSUNNY 49 36 61 NE7 30.30R Cincinnati MOSUNNY 50 38 63 NE10 30.19R Columbus PTSUNNY 47 40 75 E12 30.22S Detroit MOSUNNY 49 33 54 E6 30.29F Chicago O`Hare CLOUDY 44 35 70 NE12 30.24R Minneapolis CLOUDY 49 33 54 SE8 30.24S Indianapolis PTSUNNY 50 38 63 E13 30.17F Toronto Canada PTSUNNY 43 30 61 NW3 30.28R $$

USA.gov is the U.S. government's official web portal to all federal, state and local government web resources and services.